When you browse on this site, cookies collect data to enhance your experience and personalize the content and advertising you see.
Visit our Privacy Policy to learn more. By continuing to use the site, you agree to this use of cookies and data.
  • In Lithuania
  • List of Countries
  • For 7 days
  • Water Temperature
  • Satellite Maps
  • Weather Map
  • Weather Widgets
  • user-avatar
    Login

    Hourly Weather Shaki

    Today, 25 March, Monday

    Time Temperature Precipitation Wind Pressure Humidity
    00:00 +8°C° 0.4 mm 2 mps 733 mmHg 71%
    01:00 +8°C° 0.1 mm 2 mps 733 mmHg 72%
    02:00 +7°C° 0.1 mm 2 mps 733 mmHg 72%
    03:00 +7°C° 0.1 mm 2 mps 733 mmHg 72%
    04:00 +7°C° 0.1 mm 2 mps 733 mmHg 72%
    05:00 +7°C° 0.1 mm 2 mps 733 mmHg 71%
    06:00 +7°C° 0.1 mm 2 mps 734 mmHg 71%
    07:00 +8°C° 0 mm 2 mps 734 mmHg 67%
    08:00 +9°C° 0 mm 2 mps 734 mmHg 62%
    09:00 +10°C° 0 mm 2 mps 734 mmHg 58%
    10:00 +10°C° 0.1 mm 2 mps 734 mmHg 59%
    11:00 +10°C° 0.1 mm 2 mps 733 mmHg 61%
    12:00 +10°C° 0.1 mm 2 mps 733 mmHg 62%
    13:00 +9°C° 0.2 mm 3 mps 733 mmHg 69%
    14:00 +7°C° 0.2 mm 4 mps 733 mmHg 75%
    15:00 +7°C° 0.2 mm 5 mps 733 mmHg 82%
    16:00 +6°C° 0.4 mm 5 mps 734 mmHg 83%
    17:00 +6°C° 0.4 mm 4 mps 734 mmHg 83%
    18:00 +5°C° 0.4 mm 4 mps 734 mmHg 84%
    19:00 +5°C° 0.3 mm 3 mps 735 mmHg 84%
    20:00 +5°C° 0.3 mm 3 mps 735 mmHg 84%
    21:00 +5°C° 0.3 mm 3 mps 736 mmHg 84%
    22:00 +6°C° 0.1 mm 2 mps 736 mmHg 84%
    23:00 +5°C° 0.1 mm 2 mps 736 mmHg 84%

    Tomorrow, 26 March, Tuesday

    Time Temperature Precipitation Wind Pressure Humidity
    00:00 +5°C° 0.1 mm 2 mps 736 mmHg 85%
    01:00 +6°C° 0.1 mm 1 mps 736 mmHg 85%
    02:00 +6°C° 0.1 mm 1 mps 736 mmHg 85%
    03:00 +6°C° 0.1 mm 1 mps 736 mmHg 85%
    04:00 +6°C° 0.1 mm 1 mps 736 mmHg 85%
    05:00 +6°C° 0.1 mm 1 mps 736 mmHg 84%
    06:00 +6°C° 0.1 mm 1 mps 736 mmHg 83%
    07:00 +7°C° 0.1 mm 1 mps 736 mmHg 79%
    08:00 +7°C° 0.1 mm 2 mps 736 mmHg 74%
    09:00 +8°C° 0.1 mm 2 mps 736 mmHg 69%
    10:00 +9°C° 0 mm 2 mps 735 mmHg 66%
    11:00 +10°C° 0 mm 3 mps 735 mmHg 63%
    12:00 +11°C° 0 mm 3 mps 735 mmHg 60%
    13:00 +11°C° 0 mm 3 mps 734 mmHg 60%
    14:00 +11°C° 0 mm 3 mps 734 mmHg 60%
    15:00 +11°C° 0 mm 3 mps 734 mmHg 60%
    16:00 +10°C° 0 mm 2 mps 734 mmHg 64%
    17:00 +10°C° 0 mm 2 mps 733 mmHg 68%
    18:00 +10°C° 0 mm 1 mps 733 mmHg 72%
    19:00 +9°C° 0 mm 1 mps 733 mmHg 73%
    20:00 +9°C° 0 mm 1 mps 734 mmHg 75%
    21:00 +8°C° 0 mm 1 mps 734 mmHg 77%
    22:00 +7°C° 0 mm 0 mps 734 mmHg 76%
    23:00 +7°C° 0 mm 0 mps 733 mmHg 76%

    Day after tomorrow, 27 March, Wednesday

    Time Temperature Precipitation Wind Pressure Humidity
    00:00 +7°C° 0 mm 0 mps 733 mmHg 76%
    01:00 +8°C° 0 mm 1 mps 732 mmHg 75%
    02:00 +7°C° 0 mm 1 mps 732 mmHg 75%
    03:00 +7°C° 0 mm 1 mps 732 mmHg 75%
    04:00 +7°C° 0 mm 1 mps 731 mmHg 74%
    05:00 +6°C° 0 mm 2 mps 731 mmHg 72%
    06:00 +6°C° 0 mm 2 mps 731 mmHg 70%
    07:00 +8°C° 0 mm 3 mps 731 mmHg 63%
    08:00 +10°C° 0 mm 3 mps 731 mmHg 56%
    09:00 +12°C° 0 mm 4 mps 731 mmHg 49%
    10:00 +14°C° 0 mm 4 mps 731 mmHg 46%
    11:00 +15°C° 0 mm 4 mps 731 mmHg 42%
    12:00 +16°C° 0 mm 5 mps 731 mmHg 38%
    13:00 +18°C° 0 mm 4 mps 731 mmHg 37%
    14:00 +18°C° 0 mm 4 mps 731 mmHg 37%
    15:00 +19°C° 0 mm 4 mps 731 mmHg 36%
    16:00 +17°C° 0 mm 3 mps 731 mmHg 39%
    17:00 +16°C° 0 mm 2 mps 731 mmHg 42%
    18:00 +14°C° 0 mm 1 mps 731 mmHg 44%
    19:00 +14°C° 0 mm 2 mps 732 mmHg 44%
    20:00 +13°C° 0 mm 2 mps 733 mmHg 44%
    21:00 +13°C° 0 mm 2 mps 733 mmHg 44%
    22:00 +12°C° 0 mm 2 mps 733 mmHg 47%
    23:00 +12°C° 0 mm 1 mps 734 mmHg 50%

    28 March, Thursday

    Time Temperature Precipitation Wind Pressure Humidity
    00:00 +11°C° 0 mm 1 mps 734 mmHg 53%
    01:00 +10°C° 0 mm 1 mps 734 mmHg 54%
    02:00 +10°C° 0 mm 1 mps 734 mmHg 55%
    03:00 +9°C° 0 mm 1 mps 734 mmHg 57%
    04:00 +9°C° 0 mm 1 mps 735 mmHg 57%
    05:00 +9°C° 0 mm 1 mps 735 mmHg 57%
    06:00 +8°C° 0 mm 1 mps 735 mmHg 56%
    07:00 +10°C° 0 mm 1 mps 736 mmHg 51%
    08:00 +12°C° 0 mm 1 mps 736 mmHg 46%
    09:00 +14°C° 0 mm 2 mps 736 mmHg 40%
    10:00 +14°C° 0.1 mm 1 mps 736 mmHg 40%
    11:00 +15°C° 0.1 mm 1 mps 736 mmHg 40%
    12:00 +15°C° 0.1 mm 1 mps 736 mmHg 40%
    13:00 +16°C° 0.1 mm 1 mps 735 mmHg 41%
    14:00 +16°C° 0.1 mm 1 mps 735 mmHg 41%
    15:00 +16°C° 0.1 mm 1 mps 735 mmHg 42%
    16:00 +15°C° 0.1 mm 1 mps 735 mmHg 45%
    17:00 +14°C° 0.1 mm 1 mps 736 mmHg 49%
    18:00 +13°C° 0.1 mm 1 mps 736 mmHg 53%
    19:00 +12°C° 0.3 mm 1 mps 736 mmHg 56%
    20:00 +11°C° 0.3 mm 1 mps 737 mmHg 59%
    21:00 +11°C° 0.3 mm 1 mps 737 mmHg 62%
    22:00 +10°C° 0.8 mm 1 mps 737 mmHg 65%
    23:00 +9°C° 0.8 mm 1 mps 737 mmHg 69%

    29 March, Friday

    Time Temperature Precipitation Wind Pressure Humidity
    00:00 +8°C° 0.8 mm 0 mps 737 mmHg 73%
    01:00 +9°C° 0.2 mm 1 mps 737 mmHg 72%
    02:00 +9°C° 0.2 mm 1 mps 737 mmHg 72%
    03:00 +8°C° 0.2 mm 1 mps 737 mmHg 71%
    04:00 +8°C° 0 mm 1 mps 737 mmHg 70%
    05:00 +8°C° 0 mm 1 mps 737 mmHg 68%
    06:00 +8°C° 0 mm 1 mps 738 mmHg 67%
    07:00 +9°C° 0 mm 1 mps 738 mmHg 62%
    08:00 +10°C° 0 mm 1 mps 738 mmHg 56%
    09:00 +12°C° 0 mm 1 mps 738 mmHg 51%
    10:00 +12°C° 0.1 mm 2 mps 737 mmHg 51%
    11:00 +13°C° 0.1 mm 2 mps 737 mmHg 51%
    12:00 +13°C° 0.1 mm 2 mps 736 mmHg 50%
    13:00 +13°C° 0.2 mm 2 mps 736 mmHg 53%
    14:00 +13°C° 0.2 mm 2 mps 736 mmHg 55%
    15:00 +13°C° 0.2 mm 2 mps 735 mmHg 58%
    16:00 +12°C° 0.3 mm 2 mps 735 mmHg 62%
    17:00 +12°C° 0.3 mm 2 mps 736 mmHg 66%
    18:00 +11°C° 0.3 mm 1 mps 736 mmHg 70%
    19:00 +9°C° 0.5 mm 2 mps 736 mmHg 71%
    20:00 +9°C° 0.5 mm 2 mps 736 mmHg 71%
    21:00 +9°C° 0.5 mm 2 mps 737 mmHg 72%
    22:00 +8°C° 0.6 mm 2 mps 736 mmHg 74%
    23:00 +8°C° 0.6 mm 2 mps 736 mmHg 77%

    30 March, Saturday

    Time Temperature Precipitation Wind Pressure Humidity
    00:00 +8°C° 0.6 mm 3 mps 736 mmHg 80%
    01:00 +8°C° 0.4 mm 3 mps 736 mmHg 81%
    02:00 +7°C° 0.4 mm 2 mps 735 mmHg 81%
    03:00 +7°C° 0.4 mm 2 mps 735 mmHg 82%
    04:00 +7°C° 0.5 mm 2 mps 735 mmHg 82%
    05:00 +7°C° 0.5 mm 2 mps 735 mmHg 83%
    06:00 +7°C° 0.5 mm 2 mps 735 mmHg 83%
    07:00 +7°C° 0.4 mm 2 mps 735 mmHg 81%
    08:00 +8°C° 0.4 mm 2 mps 735 mmHg 79%
    09:00 +8°C° 0.4 mm 2 mps 735 mmHg 77%
    10:00 +9°C° 0.2 mm 2 mps 735 mmHg 75%
    11:00 +10°C° 0.2 mm 2 mps 734 mmHg 73%
    12:00 +10°C° 0.2 mm 3 mps 734 mmHg 71%
    13:00 +12°C° 0.1 mm 2 mps 734 mmHg 70%
    14:00 +12°C° 0.1 mm 2 mps 733 mmHg 70%
    15:00 +12°C° 0.1 mm 2 mps 733 mmHg 70%
    16:00 +10°C° 0.2 mm 2 mps 733 mmHg 74%
    17:00 +11°C° 0.2 mm 1 mps 734 mmHg 78%
    18:00 +10°C° 0.2 mm 1 mps 734 mmHg 82%
    19:00 +10°C° 0.4 mm 1 mps 734 mmHg 84%
    20:00 +8°C° 0.4 mm 0 mps 734 mmHg 86%
    21:00 +8°C° 0.4 mm 0 mps 735 mmHg 88%
    22:00 +9°C° 0.2 mm 1 mps 735 mmHg 88%
    23:00 +9°C° 0.2 mm 1 mps 735 mmHg 88%
    Show more